Location: Newark
(48.5178°N, 4.2361°E)
Time: 10:26:47
(UTC+00:00)

ISS - Pass Details

Date: 11 December 2019
Orbit: 415 x 421 km, 51.6° (Epoch: 19 January)

Event Time Altitude Azimuth Distance (km) Brightness Sun altitude
Rises 16:19:26 0° 291° (WNW) 2,369 0.7 -5.3°
Reaches altitude 10° 16:21:35 10° 285° (WNW) 1,504 -0.2 -5.6°
Maximum altitude 16:24:50 45° 211° (SSW) 581 -2.5 -6.1°
Drops below altitude 10° 16:28:04 10° 137° (SE) 1,501 -1.1 -6.6°
Enters shadow 16:33:55 -11° 128° (SE) 3,875 0.9 -7.4°
